Time,TemperatureF,DewpointF,PressureIn,WindDirection,WindDirectionDegrees,WindSpeedMPH,WindSpeedGustMPH,Humidity,HourlyPrecipIn,Conditions,Clouds,dailyrainin,SoftwareType,DateUTC
2013-08-10 00:00:00,72.0,67.0,29.95,ESE,120,0.0,1.0,84,0.00,,,0.00,weatherlink.com 1.10,2013-08-10 04:00:00,
2013-08-10 00:15:00,71.8,67.0,29.96,ESE,120,0.0,1.0,84,0.00,,,0.00,weatherlink.com 1.10,2013-08-10 04:15:00,
2013-08-10 00:30:00,71.6,67.0,29.96,NW,313,0.0,1.0,84,0.00,,,0.00,weatherlink.com 1.10,2013-08-10 04:30:00,
2013-08-10 00:45:00,70.9,67.0,29.97,NW,313,0.0,0.0,87,0.00,,,0.00,weatherlink.com 1.10,2013-08-10 04:45:00,
2013-08-10 01:00:00,70.5,66.0,29.97,NW,313,0.0,1.0,86,0.00,,,0.00,weatherlink.com 1.10,2013-08-10 05:00:00,
2013-08-10 01:15:00,70.7,66.0,29.96,NW,321,0.0,1.0,85,0.00,,,0.00,weatherlink.com 1.10,2013-08-10 05:15:00,
2013-08-10 01:30:00,71.2,66.0,29.96,NNE,15,0.0,0.0,84,0.00,,,0.00,weatherlink.com 1.10,2013-08-10 05:30:00,
2013-08-10 01:45:00,71.4,66.0,29.96,NNE,15,0.0,0.0,82,0.00,,,0.00,weatherlink.com 1.10,2013-08-10 05:45:00,
2013-08-10 02:00:00,71.5,66.0,29.97,NNW,341,0.0,1.0,82,0.00,,,0.00,weatherlink.com 1.10,2013-08-10 06:00:00,
2013-08-10 02:15:00,71.2,66.0,29.97,NNW,341,0.0,0.0,84,0.00,,,0.00,weatherlink.com 1.10,2013-08-10 06:15:00,
2013-08-10 02:30:00,70.5,66.0,29.97,NNE,30,0.0,0.0,85,0.00,,,0.00,weatherlink.com 1.10,2013-08-10 06:30:00,
2013-08-10 02:45:00,70.2,66.0,29.97,West,266,0.0,0.0,85,0.00,,,0.00,weatherlink.com 1.10,2013-08-10 06:45:00,
2013-08-10 03:00:00,70.6,66.0,29.97,West,266,0.0,0.0,84,0.00,,,0.00,weatherlink.com 1.10,2013-08-10 07:00:00,
2013-08-10 03:15:00,70.7,65.0,29.96,NNW,342,0.0,0.0,83,0.00,,,0.00,weatherlink.com 1.10,2013-08-10 07:15:00,
2013-08-10 03:30:00,70.5,65.0,29.96,North,9,0.0,0.0,82,0.00,,,0.00,weatherlink.com 1.10,2013-08-10 07:30:00,
2013-08-10 03:45:00,70.8,65.0,29.96,ESE,115,0.0,1.0,81,0.00,,,0.00,weatherlink.com 1.10,2013-08-10 07:45:00,
2013-08-10 04:00:00,71.0,65.0,29.96,NE,40,0.0,1.0,81,0.00,,,0.00,weatherlink.com 1.10,2013-08-10 08:00:00,
2013-08-10 04:15:00,71.0,65.0,29.96,NE,36,0.0,1.0,81,0.00,,,0.00,weatherlink.com 1.10,2013-08-10 08:15:00,
2013-08-10 04:30:00,70.9,65.0,29.96,ESE,120,0.0,1.0,81,0.00,,,0.00,weatherlink.com 1.10,2013-08-10 08:30:00,
2013-08-10 04:45:00,71.1,65.0,29.97,East,98,0.0,1.0,80,0.00,,,0.00,weatherlink.com 1.10,2013-08-10 08:45:00,
2013-08-10 05:00:00,71.1,64.0,29.97,SE,141,0.0,1.0,79,0.00,,,0.00,weatherlink.com 1.10,2013-08-10 09:00:00,
2013-08-10 05:15:00,70.9,64.0,29.97,SE,141,0.0,1.0,80,0.00,,,0.00,weatherlink.com 1.10,2013-08-10 09:15:00,
2013-08-10 05:30:00,70.9,64.0,29.97,NNE,18,0.0,1.0,80,0.00,,,0.00,weatherlink.com 1.10,2013-08-10 09:30:00,
2013-08-10 05:45:00,71.2,64.0,29.98,ESE,105,0.0,1.0,79,0.00,,,0.00,weatherlink.com 1.10,2013-08-10 09:45:00,
2013-08-10 06:00:00,71.1,64.0,29.98,ESE,105,0.0,1.0,79,0.00,,,0.00,weatherlink.com 1.10,2013-08-10 10:00:00,
2013-08-10 06:15:00,70.9,64.0,29.98,NNE,13,0.0,1.0,80,0.00,,,0.00,weatherlink.com 1.10,2013-08-10 10:15:00,
2013-08-10 06:30:00,70.5,65.0,29.98,WNW,291,0.0,1.0,83,0.00,,,0.00,weatherlink.com 1.10,2013-08-10 10:30:00,
2013-08-10 06:45:00,69.7,65.0,29.98,North,354,0.0,0.0,86,0.00,,,0.00,weatherlink.com 1.10,2013-08-10 10:45:00,
2013-08-10 07:00:00,69.2,65.0,29.98,West,266,0.0,0.0,87,0.00,,,0.00,weatherlink.com 1.10,2013-08-10 11:00:00,
2013-08-10 07:15:00,68.9,65.0,29.98,West,265,0.0,0.0,88,0.00,,,0.00,weatherlink.com 1.10,2013-08-10 11:15:00,
2013-08-10 07:30:00,68.8,65.0,29.98,ESE,111,0.0,1.0,87,0.00,,,0.00,weatherlink.com 1.10,2013-08-10 11:30:00,
2013-08-10 07:45:00,69.3,65.0,29.98,NNE,29,0.0,1.0,86,0.00,,,0.00,weatherlink.com 1.10,2013-08-10 11:45:00,
2013-08-10 08:00:00,69.3,65.0,29.99,North,353,0.0,1.0,87,0.00,,,0.00,weatherlink.com 1.10,2013-08-10 12:00:00,
2013-08-10 08:15:00,69.3,65.0,30.00,NNW,328,0.0,2.0,86,0.00,,,0.00,weatherlink.com 1.10,2013-08-10 12:15:00,
2013-08-10 08:30:00,69.7,65.0,30.00,NNW,328,0.0,0.0,86,0.00,,,0.00,weatherlink.com 1.10,2013-08-10 12:30:00,
2013-08-10 08:45:00,70.2,66.0,30.00,NNW,328,0.0,1.0,85,0.00,,,0.00,weatherlink.com 1.10,2013-08-10 12:45:00,
2013-08-10 09:00:00,70.6,66.0,30.00,NNW,327,0.0,0.0,86,0.00,,,0.00,weatherlink.com 1.10,2013-08-10 13:00:00,
2013-08-10 09:15:00,71.5,67.0,30.01,NNW,328,0.0,1.0,85,0.00,,,0.00,weatherlink.com 1.10,2013-08-10 13:15:00,
2013-08-10 09:30:00,71.9,67.0,30.01,NNW,336,0.0,0.0,84,0.00,,,0.00,weatherlink.com 1.10,2013-08-10 13:30:00,
2013-08-10 09:45:00,72.6,67.0,30.01,ESE,112,0.0,0.0,83,0.00,,,0.00,weatherlink.com 1.10,2013-08-10 13:45:00,
2013-08-10 10:00:00,73.6,67.0,30.02,East,80,0.0,0.0,81,0.00,,,0.00,weatherlink.com 1.10,2013-08-10 14:00:00,
2013-08-10 10:15:00,75.3,67.0,30.02,ESE,105,0.0,0.0,76,0.00,,,0.00,weatherlink.com 1.10,2013-08-10 14:15:00,
2013-08-10 10:30:00,75.8,69.0,30.02,NNE,27,0.0,0.0,78,0.00,,,0.00,weatherlink.com 1.10,2013-08-10 14:30:00,
2013-08-10 10:45:00,76.4,68.0,30.03,NNE,20,1.0,3.0,75,0.00,,,0.00,weatherlink.com 1.10,2013-08-10 14:45:00,
2013-08-10 11:01:00,77.4,69.0,30.03,North,1,1.0,3.0,74,0.00,,,0.00,weatherlink.com 1.10,2013-08-10 15:01:00,
2013-08-10 11:16:00,78.9,70.0,30.03,East,85,1.0,6.0,73,0.00,,,0.00,weatherlink.com 1.10,2013-08-10 15:16:00,
2013-08-10 11:31:00,79.1,69.0,30.03,NNE,24,0.0,4.0,71,0.00,,,0.00,weatherlink.com 1.10,2013-08-10 15:31:00,
2013-08-10 11:46:00,80.0,69.0,30.03,East,96,1.0,6.0,70,0.00,,,0.00,weatherlink.com 1.10,2013-08-10 15:46:00,
2013-08-10 12:01:00,80.0,68.0,30.03,WSW,240,1.0,3.0,67,0.00,,,0.00,weatherlink.com 1.10,2013-08-10 16:01:00,
2013-08-10 12:16:00,80.6,70.0,30.03,ESE,105,0.0,0.0,69,0.00,,,0.00,weatherlink.com 1.10,2013-08-10 16:16:00,
2013-08-10 12:31:00,81.3,70.0,30.03,NNE,33,0.0,0.0,68,0.00,,,0.00,weatherlink.com 1.10,2013-08-10 16:31:00,
2013-08-10 12:46:00,81.7,69.0,30.03,SE,145,1.0,4.0,65,0.00,,,0.00,weatherlink.com 1.10,2013-08-10 16:46:00,
2013-08-10 15:40:00,84.7,69.0,30.00,NNW,346,0.0,2.0,60,0.00,,,0.00,weatherlink.com 1.10,2013-08-10 19:40:00,
2013-08-10 15:46:00,84.1,69.0,30.00,NE,36,2.0,3.0,60,0.00,,,0.00,weatherlink.com 1.10,2013-08-10 19:46:00,
2013-08-10 16:01:00,85.2,70.0,29.99,NE,38,3.0,3.0,60,0.00,,,0.00,weatherlink.com 1.10,2013-08-10 20:01:00,
2013-08-10 16:16:00,85.3,72.0,29.99,NNE,33,0.0,2.0,64,0.00,,,0.00,weatherlink.com 1.10,2013-08-10 20:16:00,
2013-08-10 16:31:00,84.2,71.0,29.98,NE,41,1.0,2.0,65,0.00,,,0.00,weatherlink.com 1.10,2013-08-10 20:31:00,
2013-08-10 16:46:00,84.5,70.0,29.98,North,6,0.0,4.0,63,0.00,,,0.00,weatherlink.com 1.10,2013-08-10 20:46:00,
2013-08-10 17:01:00,83.5,70.0,29.97,SE,141,0.0,1.0,64,0.00,,,0.00,weatherlink.com 1.10,2013-08-10 21:01:00,
2013-08-10 17:16:00,84.5,69.0,29.97,NW,309,1.0,3.0,60,0.00,,,0.00,weatherlink.com 1.10,2013-08-10 21:16:00,
2013-08-10 17:31:00,84.2,68.0,29.96,NNW,345,0.0,2.0,58,0.00,,,0.00,weatherlink.com 1.10,2013-08-10 21:31:00,
2013-08-10 17:46:00,84.0,68.0,29.96,SW,219,0.0,3.0,58,0.00,,,0.00,weatherlink.com 1.10,2013-08-10 21:46:00,
2013-08-10 18:01:00,84.0,69.0,29.96,North,9,0.0,1.0,60,0.00,,,0.00,weatherlink.com 1.10,2013-08-10 22:01:00,
2013-08-10 18:16:00,82.7,68.0,29.96,WNW,302,0.0,1.0,62,0.00,,,0.00,weatherlink.com 1.10,2013-08-10 22:16:00,
2013-08-10 18:31:00,80.6,67.0,29.96,NNW,339,0.0,2.0,64,0.00,,,0.00,weatherlink.com 1.10,2013-08-10 22:31:00,
2013-08-10 18:46:00,79.7,68.0,29.96,West,270,0.0,0.0,67,0.00,,,0.00,weatherlink.com 1.10,2013-08-10 22:46:00,
2013-08-10 19:01:00,80.3,69.0,29.96,WSW,252,0.0,0.0,69,0.00,,,0.00,weatherlink.com 1.10,2013-08-10 23:01:00,
2013-08-10 19:16:00,78.4,69.0,29.97,WSW,255,0.0,0.0,72,0.00,,,0.00,weatherlink.com 1.10,2013-08-10 23:16:00,
2013-08-10 19:31:00,77.0,69.0,29.96,WSW,255,0.0,0.0,76,0.00,,,0.00,weatherlink.com 1.10,2013-08-10 23:31:00,
2013-08-10 19:46:00,76.1,69.0,29.96,WSW,255,0.0,0.0,78,0.00,,,0.00,weatherlink.com 1.10,2013-08-10 23:46:00,
2013-08-10 20:01:00,75.1,69.0,29.97,WSW,253,0.0,0.0,80,0.00,,,0.00,weatherlink.com 1.10,2013-08-11 00:01:00,
2013-08-10 20:16:00,74.4,68.0,29.97,WSW,255,0.0,0.0,81,0.00,,,0.00,weatherlink.com 1.10,2013-08-11 00:16:00,
2013-08-10 20:31:00,73.8,68.0,29.97,WSW,252,0.0,0.0,82,0.00,,,0.00,weatherlink.com 1.10,2013-08-11 00:31:00,
2013-08-10 20:46:00,73.1,68.0,29.97,WSW,253,0.0,0.0,83,0.00,,,0.00,weatherlink.com 1.10,2013-08-11 00:46:00,
2013-08-10 21:01:00,72.6,67.0,29.98,WSW,252,0.0,0.0,83,0.00,,,0.00,weatherlink.com 1.10,2013-08-11 01:01:00,
2013-08-10 21:16:00,71.9,68.0,29.98,WSW,253,0.0,0.0,87,0.00,,,0.00,weatherlink.com 1.10,2013-08-11 01:16:00,
2013-08-10 21:31:00,71.3,67.0,29.99,WSW,253,0.0,0.0,87,0.00,,,0.00,weatherlink.com 1.10,2013-08-11 01:31:00,
2013-08-10 21:46:00,71.9,66.0,29.99,WSW,253,0.0,0.0,82,0.00,,,0.00,weatherlink.com 1.10,2013-08-11 01:46:00,
2013-08-10 22:01:00,71.9,66.0,29.99,WSW,253,0.0,0.0,82,0.00,,,0.00,weatherlink.com 1.10,2013-08-11 02:01:00,
2013-08-10 22:16:00,71.1,66.0,30.00,WSW,252,0.0,0.0,84,0.00,,,0.00,weatherlink.com 1.10,2013-08-11 02:16:00,
2013-08-10 22:32:00,71.1,66.0,30.00,WSW,252,0.0,0.0,84,0.00,,,0.00,weatherlink.com 1.10,2013-08-11 02:32:00,
2013-08-10 22:47:00,70.8,67.0,30.00,WSW,252,0.0,0.0,87,0.00,,,0.00,weatherlink.com 1.10,2013-08-11 02:47:00,
2013-08-10 23:02:00,70.5,67.0,30.00,WSW,253,0.0,0.0,88,0.00,,,0.00,weatherlink.com 1.10,2013-08-11 03:02:00,
2013-08-10 23:17:00,70.5,67.0,30.01,WSW,252,0.0,0.0,89,0.00,,,0.00,weatherlink.com 1.10,2013-08-11 03:17:00,
2013-08-10 23:47:00,69.8,67.0,30.01,WSW,253,0.0,0.0,91,0.00,,,0.00,weatherlink.com 1.10,2013-08-11 03:47:00,